�������l�o���
Date,Time,MP-1(��Sv/h),MP-2(��Sv/h),MP-3(��Sv/h),MP-4(��Sv/h),MP-5(��Sv/h),MP-6(��Sv/h),MP-7(��Sv/h),MP-8(��Sv/h),����,����(m/s),���J
2021/10/11,00:00,0.588,0.878,0.562,1.064,0.758,0.357,0.624,0.584,��쐼,8.4,��
2021/10/11,00:10,0.588,0.878,0.562,1.067,0.758,0.358,0.624,0.584,��쐼,8.5,��
2021/10/11,00:20,0.589,0.880,0.563,1.065,0.757,0.358,0.626,0.584,��쐼,8.8,��
2021/10/11,00:30,0.589,0.879,0.561,1.065,0.756,0.359,0.624,0.583,��쐼,9.6,��
2021/10/11,00:40,0.589,0.877,0.560,1.068,0.759,0.358,0.625,0.584,��쐼,9.4,��
2021/10/11,00:50,0.589,0.880,0.561,1.064,0.758,0.358,0.626,0.583,��,7.4,��
2021/10/11,01:00,0.589,0.879,0.561,1.065,0.758,0.357,0.624,0.583,��,7.0,��
2021/10/11,01:10,0.587,0.881,0.562,1.063,0.758,0.357,0.625,0.584,��쐼,6.6,��
2021/10/11,01:20,0.588,0.879,0.561,1.063,0.758,0.358,0.624,0.585,��쐼,7.7,��
2021/10/11,01:30,0.589,0.879,0.562,1.065,0.757,0.359,0.624,0.583,��쐼,8.4,��
2021/10/11,01:40,0.589,0.877,0.562,1.064,0.757,0.359,0.625,0.583,��쐼,7.7,��
2021/10/11,01:50,0.589,0.880,0.562,1.064,0.758,0.358,0.625,0.584,��쐼,6.4,��
2021/10/11,02:00,0.588,0.880,0.559,1.066,0.760,0.359,0.623,0.583,��쐼,8.4,��
2021/10/11,02:10,0.588,0.880,0.563,1.065,0.762,0.358,0.625,0.584,��쐼,7.5,��
2021/10/11,02:20,0.590,0.880,0.562,1.062,0.759,0.358,0.624,0.585,��쐼,9.7,��
2021/10/11,02:30,0.588,0.881,0.560,1.065,0.759,0.357,0.626,0.584,��쐼,8.6,��
2021/10/11,02:40,0.588,0.879,0.559,1.064,0.759,0.359,0.627,0.585,��,7.9,��
2021/10/11,02:50,0.590,0.880,0.561,1.065,0.758,0.358,0.624,0.583,��,6.9,��
2021/10/11,03:00,0.589,0.881,0.561,1.065,0.759,0.359,0.626,0.583,��쐼,6.7,��
2021/10/11,03:10,0.589,0.880,0.560,1.064,0.756,0.358,0.624,0.585,��쐼,7.6,��
2021/10/11,03:20,0.590,0.879,0.561,1.066,0.757,0.359,0.624,0.583,��쐼,7.2,��
2021/10/11,03:30,0.591,0.879,0.562,1.066,0.757,0.358,0.626,0.584,��쐼,6.2,��
2021/10/11,03:40,0.591,0.879,0.562,1.066,0.758,0.359,0.625,0.585,��쐼,5.0,��
2021/10/11,03:50,0.590,0.878,0.562,1.070,0.760,0.358,0.624,0.584,��쐼,6.4,��
2021/10/11,04:00,0.592,0.878,0.562,1.064,0.761,0.358,0.624,0.584,��쐼,5.1,��
2021/10/11,04:10,0.590,0.879,0.561,1.063,0.758,0.358,0.624,0.584,��,3.2,��
2021/10/11,04:20,0.592,0.879,0.563,1.064,0.759,0.359,0.624,0.585,��,4.5,��
2021/10/11,04:30,0.591,0.878,0.562,1.067,0.759,0.358,0.625,0.584,��,6.3,��
2021/10/11,04:40,0.592,0.880,0.562,1.064,0.758,0.359,0.624,0.584,��쐼,7.3,��
2021/10/11,04:50,0.591,0.880,0.562,1.066,0.757,0.359,0.625,0.585,��쐼,7.3,��
2021/10/11,05:00,0.590,0.881,0.562,1.067,0.760,0.359,0.623,0.584,��쐼,7.8,��
2021/10/11,05:10,0.589,0.879,0.562,1.064,0.759,0.359,0.624,0.585,��쐼,8.0,��
2021/10/11,05:20,0.591,0.880,0.562,1.067,0.758,0.359,0.625,0.585,��쐼,7.4,��
2021/10/11,05:30,0.592,0.880,0.563,1.064,0.757,0.357,0.623,0.585,��쐼,7.3,��
2021/10/11,05:40,0.591,0.879,0.562,1.066,0.760,0.359,0.625,0.584,��쐼,6.4,��
2021/10/11,05:50,0.589,0.878,0.561,1.064,0.758,0.358,0.625,0.584,��쐼,5.8,��
2021/10/11,06:00,0.591,0.879,0.562,1.065,0.757,0.359,0.624,0.584,��,5.6,��
2021/10/11,06:10,0.590,0.879,0.561,1.066,0.756,0.359,0.624,0.583,��,6.6,��
2021/10/11,06:20,0.593,0.880,0.563,1.065,0.760,0.358,0.625,0.583,��,5.9,��
2021/10/11,06:30,0.591,0.878,0.563,1.065,0.758,0.358,0.625,0.583,��,4.8,��
2021/10/11,06:40,0.593,0.879,0.562,1.065,0.761,0.358,0.625,0.583,��,4.8,��
2021/10/11,06:50,0.591,0.880,0.564,1.065,0.759,0.359,0.625,0.584,��,4.5,��
2021/10/11,07:00,0.592,0.877,0.562,1.065,0.760,0.359,0.626,0.584,��,3.9,��
2021/10/11,07:10,0.593,0.878,0.563,1.067,0.759,0.359,0.626,0.586,��,4.5,��
2021/10/11,07:20,0.591,0.877,0.561,1.066,0.758,0.358,0.625,0.585,��쐼,5.0,��
2021/10/11,07:30,0.592,0.876,0.561,1.067,0.759,0.358,0.625,0.585,��쐼,4.4,��
2021/10/11,07:40,0.591,0.878,0.560,1.068,0.758,0.359,0.624,0.587,��,5.0,��
2021/10/11,07:50,0.590,0.877,0.561,1.067,0.760,0.359,0.624,0.584,�쐼,5.4,��
2021/10/11,08:00,0.589,0.877,0.560,1.069,0.758,0.359,0.624,0.586,�쐼,7.3,��
2021/10/11,08:10,0.590,0.880,0.562,1.068,0.758,0.358,0.624,0.586,�쐼,8.1,��
2021/10/11,08:20,0.590,0.876,0.563,1.067,0.760,0.358,0.623,0.587,�쐼,6.5,��
2021/10/11,08:30,0.590,0.877,0.561,1.067,0.759,0.358,0.623,0.585,�쐼,6.0,��
2021/10/11,08:40,0.592,0.877,0.560,1.066,0.759,0.359,0.622,0.586,�쐼,5.3,��
2021/10/11,08:50,0.592,0.876,0.562,1.068,0.760,0.357,0.624,0.586,��쐼,4.9,��
2021/10/11,09:00,0.590,0.879,0.561,1.070,0.760,0.359,0.622,0.584,��,4.7,��
2021/10/11,09:10,0.592,0.876,0.559,1.069,0.757,0.360,0.625,0.584,��,5.5,��
2021/10/11,09:20,0.592,0.876,0.562,1.070,0.758,0.359,0.624,0.584,��,7.1,��
2021/10/11,09:30,0.590,0.878,0.562,1.069,0.757,0.357,0.624,0.582,��,8.0,��
2021/10/11,09:40,0.594,0.877,0.561,1.070,0.758,0.359,0.624,0.583,��,8.9,��
2021/10/11,09:50,0.593,0.880,0.564,1.069,0.760,0.359,0.623,0.583,��쓌,7.0,��
2021/10/11,10:00,0.593,0.879,0.562,1.070,0.760,0.358,0.625,0.583,��,7.5,��
2021/10/11,10:10,0.595,0.878,0.561,1.069,0.760,0.359,0.624,0.585,��,7.7,��
2021/10/11,10:20,0.594,0.878,0.562,1.066,0.760,0.358,0.624,0.583,��,8.7,��
2021/10/11,10:30,0.595,0.879,0.563,1.068,0.762,0.359,0.625,0.583,��,8.7,��
2021/10/11,10:40,0.594,0.877,0.561,1.069,0.761,0.359,0.627,0.584,��,10.3,��
2021/10/11,10:50,0.593,0.876,0.564,1.070,0.761,0.360,0.625,0.584,��,8.2,��
2021/10/11,11:00,0.595,0.876,0.564,1.069,0.761,0.360,0.626,0.584,��,8.7,��
2021/10/11,11:10,0.595,0.879,0.562,1.069,0.762,0.360,0.624,0.585,��쓌,7.4,��
2021/10/11,11:20,0.594,0.878,0.562,1.068,0.763,0.359,0.625,0.583,��,8.8,��
2021/10/11,11:30,0.594,0.880,0.563,1.070,0.762,0.359,0.627,0.583,��,9.9,��
2021/10/11,11:40,0.595,0.879,0.564,1.071,0.762,0.360,0.626,0.584,��,7.7,��
2021/10/11,11:50,0.594,0.878,0.564,1.071,0.764,0.362,0.626,0.585,��쓌,9.1,��
2021/10/11,12:00,0.596,0.881,0.563,1.071,0.764,0.362,0.625,0.584,��,8.8,��
2021/10/11,12:10,0.593,0.882,0.565,1.072,0.762,0.363,0.625,0.584,��,8.1,��
2021/10/11,12:20,0.587,0.882,0.565,1.071,0.764,0.362,0.625,0.586,��,9.6,��
2021/10/11,12:30,0.593,0.879,0.565,1.070,0.764,0.363,0.626,0.585,��,8.8,��
2021/10/11,12:40,0.595,0.878,0.564,1.072,0.766,0.363,0.627,0.583,��,7.5,��
2021/10/11,12:50,0.597,0.879,0.565,1.071,0.765,0.363,0.626,0.583,��,7.2,��
2021/10/11,13:00,0.596,0.881,0.566,1.072,0.763,0.364,0.625,0.585,��,6.3,��
2021/10/11,13:10,0.596,0.882,0.564,1.070,0.765,0.363,0.626,0.585,��,7.3,��
2021/10/11,13:20,0.595,0.880,0.564,1.072,0.764,0.363,0.626,0.584,��,7.6,��
2021/10/11,13:30,0.597,0.881,0.564,1.070,0.766,0.364,0.625,0.583,��,6.6,��
2021/10/11,13:40,0.595,0.881,0.564,1.072,0.763,0.362,0.626,0.585,��,5.3,��
2021/10/11,13:50,0.594,0.881,0.564,1.072,0.765,0.364,0.626,0.582,��,5.6,��
2021/10/11,14:00,0.595,0.880,0.565,1.072,0.765,0.364,0.625,0.585,��,5.4,��
2021/10/11,14:10,0.595,0.881,0.564,1.069,0.765,0.363,0.626,0.585,��,4.4,��
2021/10/11,14:20,0.596,0.880,0.565,1.073,0.765,0.362,0.624,0.584,��,3.3,��
2021/10/11,14:30,0.596,0.881,0.563,1.073,0.765,0.360,0.626,0.584,��,4.2,��
2021/10/11,14:40,0.594,0.882,0.563,1.073,0.765,0.360,0.625,0.584,��,3.9,��
2021/10/11,14:50,0.595,0.881,0.564,1.071,0.766,0.361,0.624,0.583,��,2.6,��
2021/10/11,15:00,0.594,0.883,0.564,1.071,0.765,0.363,0.623,0.586,��,3.8,��
2021/10/11,15:10,0.595,0.883,0.563,1.072,0.764,0.364,0.626,0.584,��쐼,4.8,��
2021/10/11,15:20,0.595,0.883,0.564,1.071,0.765,0.363,0.625,0.585,��쐼,4.4,��
2021/10/11,15:30,0.594,0.882,0.565,1.074,0.764,0.360,0.625,0.584,��쐼,3.6,��
2021/10/11,15:40,0.594,0.885,0.563,1.072,0.767,0.363,0.625,0.584,��쐼,3.9,��
2021/10/11,15:50,0.595,0.885,0.564,1.072,0.768,0.362,0.625,0.583,��쐼,3.9,��
2021/10/11,16:00,0.596,0.884,0.556,1.072,0.767,0.362,0.626,0.585,�쐼,3.3,��
2021/10/11,16:10,0.598,0.885,0.562,1.074,0.768,0.363,0.624,0.583,�쐼,3.4,��
2021/10/11,16:20,0.597,0.884,0.567,1.073,0.767,0.363,0.625,0.583,�쐼,3.7,��
2021/10/11,16:30,0.597,0.887,0.566,1.073,0.759,0.360,0.626,0.585,�k��,3.1,��
2021/10/11,16:40,0.595,0.885,0.568,1.075,0.758,0.362,0.625,0.585,�k�k��,5.1,��
2021/10/11,16:50,0.596,0.886,0.567,1.073,0.767,0.362,0.627,0.585,�k�k��,4.3,��
2021/10/11,17:00,0.596,0.885,0.566,1.074,0.768,0.361,0.625,0.586,�k�k��,5.0,��
2021/10/11,17:10,0.596,0.887,0.567,1.072,0.767,0.361,0.625,0.587,�k�k��,5.9,��
2021/10/11,17:20,0.597,0.888,0.565,1.074,0.766,0.361,0.626,0.587,�k�k��,8.8,��
2021/10/11,17:30,0.595,0.885,0.565,1.076,0.767,0.360,0.625,0.586,�k,9.4,��
2021/10/11,17:40,0.597,0.888,0.566,1.075,0.767,0.360,0.625,0.586,�k,8.8,��
2021/10/11,17:50,0.595,0.888,0.565,1.072,0.766,0.360,0.626,0.587,�k,6.8,��
2021/10/11,18:00,0.594,0.888,0.565,1.072,0.765,0.361,0.625,0.587,�k,6.6,��
2021/10/11,18:10,0.594,0.887,0.566,1.073,0.768,0.360,0.626,0.586,�k,6.6,��
2021/10/11,18:20,0.593,0.887,0.566,1.073,0.767,0.360,0.624,0.585,�k,6.1,��
2021/10/11,18:30,0.595,0.887,0.566,1.073,0.767,0.360,0.627,0.586,�k�k��,6.9,��
2021/10/11,18:40,0.597,0.888,0.567,1.075,0.765,0.359,0.626,0.585,�k�k��,6.5,��
2021/10/11,18:50,0.596,0.890,0.565,1.075,0.768,0.360,0.625,0.586,�k�k��,6.7,��
2021/10/11,19:00,0.595,0.889,0.566,1.075,0.766,0.360,0.627,0.586,�k,5.4,��
2021/10/11,19:10,0.596,0.890,0.566,1.075,0.766,0.359,0.625,0.587,�k�k��,5.2,��
2021/10/11,19:20,0.596,0.888,0.566,1.075,0.767,0.360,0.626,0.586,�k�k��,5.5,��
2021/10/11,19:30,0.595,0.889,0.565,1.076,0.765,0.360,0.626,0.587,�k�k��,5.5,��
2021/10/11,19:40,0.596,0.889,0.567,1.075,0.766,0.359,0.627,0.588,�k�k��,6.1,��
2021/10/11,19:50,0.597,0.887,0.567,1.076,0.766,0.359,0.626,0.587,�k�k��,5.4,��
2021/10/11,20:00,0.597,0.889,0.566,1.074,0.766,0.360,0.625,0.586,�k�k��,5.2,��
2021/10/11,20:10,0.595,0.887,0.566,1.075,0.768,0.358,0.624,0.587,�k�k��,5.5,��
2021/10/11,20:20,0.595,0.890,0.566,1.075,0.766,0.358,0.625,0.587,�k,4.9,��
2021/10/11,20:30,0.596,0.888,0.567,1.076,0.767,0.359,0.624,0.587,�k�k��,6.1,��
2021/10/11,20:40,0.595,0.888,0.564,1.075,0.767,0.358,0.625,0.584,�k�k��,5.4,��
2021/10/11,20:50,0.595,0.887,0.566,1.074,0.767,0.359,0.625,0.586,�k�k��,6.3,��
2021/10/11,21:00,0.596,0.888,0.563,1.074,0.767,0.357,0.625,0.588,�k�k��,6.1,��
2021/10/11,21:10,0.593,0.887,0.560,1.075,0.767,0.358,0.623,0.586,�k�k��,5.4,��
2021/10/11,21:20,0.596,0.888,0.559,1.076,0.767,0.359,0.624,0.588,�k�k��,5.9,��
2021/10/11,21:30,0.596,0.885,0.560,1.075,0.766,0.358,0.625,0.586,�k�k��,5.9,��
2021/10/11,21:40,0.597,0.886,0.564,1.076,0.767,0.358,0.625,0.586,�k�k��,5.6,��
2021/10/11,21:50,0.595,0.887,0.564,1.076,0.767,0.359,0.625,0.587,�k�k��,5.2,��
2021/10/11,22:00,0.596,0.887,0.564,1.074,0.768,0.358,0.626,0.585,�k�k��,6.7,��
2021/10/11,22:10,0.595,0.888,0.566,1.074,0.767,0.360,0.623,0.586,�k�k��,5.8,��
2021/10/11,22:20,0.595,0.888,0.565,1.075,0.767,0.357,0.625,0.586,�k�k��,5.0,��
2021/10/11,22:30,0.596,0.888,0.563,1.075,0.766,0.359,0.625,0.586,�k�k��,6.1,��
2021/10/11,22:40,0.596,0.887,0.564,1.077,0.768,0.357,0.623,0.585,�k�k��,5.4,��
2021/10/11,22:50,0.594,0.888,0.564,1.075,0.767,0.359,0.624,0.585,�k�k��,5.7,��
2021/10/11,23:00,0.595,0.890,0.564,1.075,0.768,0.358,0.625,0.587,�k�k��,5.5,��
2021/10/11,23:10,0.595,0.888,0.566,1.076,0.767,0.359,0.625,0.588,�k�k��,6.3,��
2021/10/11,23:20,0.595,0.888,0.564,1.077,0.767,0.358,0.625,0.588,�k�k��,5.9,��
2021/10/11,23:30,0.596,0.887,0.564,1.075,0.767,0.359,0.626,0.586,�k,4.6,��
2021/10/11,23:40,0.595,0.887,0.564,1.078,0.767,0.359,0.625,0.587,�k,5.4,��
2021/10/11,23:50,0.595,0.887,0.562,1.076,0.768,0.357,0.625,0.588,�k�k��,4.0,�L
